Regional Weather Roundup
Issued by NWS Little Rock, AR

Home | Current Version | Previous Version | Graphics & Text | Print | Product List | Glossary On
Versions: 1 2 3 4 5 6 7 8 9 10 11 12 13 14 15 16 17 18 19 20 21 22 23 24 25 26 27
000
ASUS44 KLZK 302305
RWRLZK

WEATHER ROUNDUP FOR ARKANSAS
NATIONAL WEATHER SERVICE LITTLE ROCK AR
600 PM CDT TUE AUG 30 2016

NOTE: "FAIR" INDICATES FEW OR NO CLOUDS BELOW 12,000 FEET WITH NO
SIGNIFICANT WEATHER AND/OR OBSTRUCTIONS TO VISIBILITY.

ARZ001-003-010-029-310000-
NORTHWEST ARKANSAS

CITY           SKY/WX    TMP DP  RH WIND       PRES   REMARKS
FAYETTEVILLE   MOSUNNY   86  70  58 E5        30.04S HX  90
FORT SMITH     CLOUDY    88  70  55 VRB3      29.99F HX  93
HARRISON       MOSUNNY   85  71  63 E8        30.06F HX  90
BENTONVILLE    SUNNY     90  66  45 E8        30.05F HX  92
ROGERS         SUNNY     89  70  53 SE9       30.05F HX  94
SILOAM SPGS    CLOUDY    88  66  48 CALM      30.04S HX  90
SPRINGDALE     MOSUNNY   88  70  55 E7        30.06S HX  92
$$

ARZ004-005-016-310000-
NORTH CENTRAL ARKANSAS

CITY           SKY/WX    TMP DP  RH WIND       PRES   REMARKS
BATESVILLE     SUNNY     91  73  55 NE6       30.01F HX 100
FLIPPIN        SUNNY     90  68  48 E5        30.01F HX  93
MTN HOME       SUNNY     89  70  53 E7        30.03F HX  94
$$

ARZ040-041-310000-
WEST CENTRAL ARKANSAS

CITY           SKY/WX    TMP DP  RH WIND       PRES   REMARKS
MENA           MOSUNNY   90  75  62 E7G16     30.02F HX 100
MOUNT IDA      MOSUNNY   90  72  55 CALM      29.99F HX  97
$$

ARZ009-017-025-026-028-310000-
NORTHEAST ARKANSAS

CITY           SKY/WX    TMP DP  RH WIND       PRES   REMARKS
JONESBORO      MOSUNNY   90  74  59 NE7       29.99F HX  99
NEWPORT        SUNNY     87  76  69 NE6       29.99F HX  97
WALNUT RIDGE   MOSUNNY   90  73  58 NE6       29.99F HX  98
BLYTHEVILLE    CLOUDY    86  70  58 E18       30.00F HX  90
$$

ARZ022-023-033-042-044-310000-
CENTRAL ARKANSAS

CITY           SKY/WX    TMP DP  RH WIND       PRES   REMARKS
LITTLE ROCK    MOSUNNY   93  71  48 NE12      29.98F HX 100
SEARCY         SUNNY     91  74  57 NE7       30.00F HX 100
HOT SPRINGS    MOSUNNY   83  71  67 S5        29.99F HX  87
RUSSELLVILLE   CLOUDY    81  76  84 CALM      30.00S HX  87
$$

ARZ036-310000-
EAST ARKANSAS

CITY           SKY/WX    TMP DP  RH WIND       PRES   REMARKS
WEST MEMPHIS   SUNNY     91  72  53 N8        29.96F HX  98
$$

ARZ050-053-066-070-073-310000-
SOUTHWEST ARKANSAS

CITY           SKY/WX    TMP DP  RH WIND       PRES   REMARKS
ARKADELPHIA    FAIR      88  76  67 E3        29.97F HX  99
TEXARKANA      MOSUNNY   88  73  61 VRB7      29.96S HX  95
EL DORADO      SUNNY     91  72  53 NE8       29.96S HX  98
DE QUEEN       PTSUNNY   80  76  87 CALM      29.96F HX  86
$$

ARZ056-057-069-310000-
SOUTHEAST ARKANSAS

CITY           SKY/WX    TMP DP  RH WIND       PRES   REMARKS
PINE BLUFF     SUNNY     90  71  53 NE6       29.96F HX  96
STUTTGART      SUNNY     90  73  58 NE7       29.98F HX  98
MONTICELLO     MOSUNNY   92  74  55 N3        29.96F HX 101

$$






USA.gov is the U.S. government's official web portal to all federal, state and local government web resources and services.